Wind_Speed
63 58 54 50 50 51 47 45 45 43 44 43 48 50 51 55 54 56 54 56 56 54 52 53 53 53 55 55 50 45 48 52 55 56 51 44 43 40 36 38 38 39 41 42 48
60 56 53 50 50 52 49 47 46 44 41 43 44 49 51 51 56 57 57 58 56 54 55 55 50 53 54 50 45 44 51 56 52 51 47 40 41 41 37 38 41 41 41 42 44
53 53 53 51 52 53 54 51 50 48 44 40 43 44 47 50 52 58 57 54 53 55 55 55 52 55 53 50 49 47 55 53 47 50 46 42 45 47 43 40 42 39 39 41 44
52 54 54 54 55 56 56 55 53 51 49 44 38 39 44 47 50 55 58 56 53 55 55 55 55 58 53 51 51 47 52 46 44 46 42 44 47 48 45 42 41 40 38 40 41
57 58 57 56 56 57 57 56 56 54 51 46 43 37 38 43 48 53 57 58 55 52 55 56 54 57 51 51 48 50 51 45 45 43 43 47 47 44 44 40 39 40 38 38 40
59 58 57 56 57 55 54 54 56 55 54 52 46 42 40 41 46 48 55 59 59 57 55 57 57 56 54 54 51 53 52 48 48 44 45 47 46 45 41 40 39 40 39 39 41
55 56 57 57 58 57 56 58 58 58 56 55 50 46 45 41 44 49 53 55 58 62 54 52 56 56 56 51 50 52 47 48 49 47 45 48 45 49 39 41 39 39 41 40 40
63 63 62 63 63 63 62 61 61 61 61 59 57 53 49 47 43 47 53 53 57 60 63 57 55 54 56 55 49 53 47 45 49 46 48 46 47 44 40 40 39 40 42 42 42
69 68 69 68 67 68 70 70 69 67 66 66 62 59 57 53 49 44 51 54 54 57 62 61 54 57 54 55 57 51 45 48 48 45 47 46 49 45 40 40 39 41 41 43 44
68 68 66 65 64 64 65 69 73 74 74 72 68 66 61 57 54 49 51 55 55 59 59 62 58 56 55 56 56 57 53 52 50 47 47 48 49 43 41 41 40 43 43 44 47
54 54 52 48 45 44 44 47 51 62 70 76 75 71 68 65 61 55 51 57 58 59 57 55 56 56 62 58 57 56 54 53 54 53 47 50 48 46 43 41 41 41 44 44 46
38 39 39 39 40 40 42 42 39 40 45 49 63 71 74 74 67 62 55 57 60 57 57 57 55 63 57 57 58 56 55 53 54 50 46 43 46 46 44 43 43 42 42 45 47
34 37 37 38 40 40 39 38 37 40 40 51 49 46 63 72 70 64 61 58 63 60 61 59 63 62 58 57 57 56 48 54 48 48 44 45 45 49 48 44 44 45 44 44 45
37 39 40 39 41 40 38 37 35 33 35 47 51 49 50 65 64 67 63 62 64 67 68 62 60 62 66 61 61 59 61 63 58 52 48 44 43 50 48 43 43 45 45 45 45
41 42 42 44 43 43 40 37 35 35 34 42 51 53 49 59 66 68 67 65 65 71 69 68 65 60 60 65 63 63 65 67 62 60 57 48 41 44 46 47 48 45 45 47 42
49 48 48 48 49 47 44 41 40 41 40 37 48 55 52 53 68 70 70 68 67 71 72 72 69 65 63 66 66 65 65 65 61 57 54 54 54 47 49 51 52 50 50 51 49
55 55 54 56 52 52 49 47 46 48 44 41 40 51 55 51 65 72 71 70 69 71 73 76 73 71 69 69 67 65 68 64 60 62 55 56 55 45 54 55 56 52 53 52 51
63 61 61 63 60 58 56 51 53 53 50 47 45 43 54 54 59 73 73 72 72 74 73 79 76 74 73 73 70 68 67 69 63 58 59 58 52 48 50 54 59 54 53 55 56
69 68 66 66 67 65 62 58 59 60 54 51 51 49 47 58 59 69 77 75 75 76 75 80 85 76 76 78 79 74 70 70 69 65 64 60 56 54 55 59 60 58 58 55 54
71 74 74 74 73 72 69 67 67 66 60 58 55 56 52 52 63 68 78 79 79 79 80 78 84 88 81 77 77 77 76 75 72 67 64 63 61 56 62 61 61 62 59 57 53
73 77 76 76 79 80 78 75 73 74 69 64 62 61 58 59 60 69 74 83 84 84 84 84 81 84 88 85 80 78 78 79 76 71 65 63 58 61 65 68 66 65 62 59 53
72 76 78 79 84 81 81 82 81 79 80 74 68 67 68 65 66 65 71 86 89 91 89 89 87 82 85 88 87 86 78 76 77 73 70 67 61 67 66 68 70 69 65 59 56
70 71 75 80 85 84 82 81 83 83 83 84 78 75 74 73 72 70 71 78 91 96 96 94 89 89 86 84 86 86 85 83 78 76 72 72 60 65 64 68 69 65 61 58 57
77 72 72 74 79 83 84 82 83 84 84 86 85 83 79 77 76 74 75 77 85 97 101 101 96 91 87 86 84 84 86 85 85 76 67 64 65 67 70 69 69 68 63 62 61
83 79 76 73 75 78 80 78 81 84 86 86 84 86 85 77 77 81 79 77 80 89 99 105 101 98 94 90 88 86 83 82 81 79 77 67 63 65 70 72 72 70 66 65 63
85 84 79 73 72 71 75 74 78 82 82 84 84 87 87 82 76 79 82 81 82 86 96 102 106 103 99 96 91 90 87 82 76 75 72 67 65 64 68 69 68 69 67 62 59
88 86 80 70 69 69 73 74 74 80 76 78 85 85 88 87 81 78 84 86 84 88 91 98 104 107 103 102 100 93 83 81 80 75 74 68 67 73 72 68 67 66 62 57 60
Wind_Direction
286 285 281 276 277 277 277 275 268 271 272 266 260 257 254 253 249 248 245 244 243 241 239 240 241 243 246 246 247 248 247 249 253 256 254 256 258 257 260 255 253 249 247 245 244
282 279 278 273 270 272 272 274 269 264 267 264 261 256 252 252 249 246 246 245 243 240 239 240 239 243 241 245 248 246 249 251 253 253 249 258 258 253 258 255 251 251 253 250 247
280 277 276 273 270 266 269 271 268 263 260 261 262 256 251 248 248 244 246 243 240 238 240 236 240 244 240 249 246 245 251 254 250 247 248 251 254 250 253 260 253 252 251 249 247
282 279 276 274 270 267 266 269 265 262 259 256 258 260 256 250 247 244 242 241 240 240 239 240 239 243 242 246 245 246 252 245 245 250 251 252 251 249 249 254 253 249 249 250 248
279 279 276 273 269 267 266 265 260 259 257 252 253 256 257 255 249 248 242 239 237 242 238 238 241 241 243 243 247 248 245 250 248 250 253 253 249 243 246 248 252 250 249 249 249
279 277 275 272 269 265 263 263 260 257 255 252 251 252 255 256 250 249 245 242 238 237 241 239 240 239 241 242 246 246 246 250 247 250 253 248 244 241 243 248 249 249 251 248 246
277 276 273 270 268 267 263 260 259 256 252 251 248 250 253 258 256 247 246 244 239 232 233 237 240 238 239 239 244 246 248 249 247 248 254 248 242 244 244 245 252 250 247 249 248
280 276 273 270 265 263 260 258 257 256 254 250 248 249 252 254 257 252 246 246 239 235 232 234 233 237 239 235 243 245 243 246 243 245 249 247 243 244 244 246 249 253 253 250 253
277 276 274 272 269 265 259 258 254 252 252 251 249 249 250 252 254 254 248 245 240 236 234 232 233 234 236 239 239 238 238 239 241 243 251 245 243 245 247 249 249 252 253 253 253
276 275 274 273 272 270 266 262 259 256 252 250 249 249 248 250 252 252 248 243 239 238 236 233 229 228 231 233 233 234 232 235 238 240 250 244 243 247 246 249 251 253 255 255 254
276 276 275 273 269 266 266 265 263 260 255 253 249 250 247 249 249 249 248 241 237 236 233 229 230 227 229 227 233 238 237 239 246 238 249 243 245 246 248 250 254 258 258 259 260
274 270 268 270 272 269 268 269 267 263 260 255 253 249 248 247 247 247 245 239 235 237 236 224 223 224 223 225 228 229 233 236 236 237 236 244 250 249 250 253 256 261 262 263 261
272 272 269 273 273 270 270 272 269 263 262 262 254 253 241 241 241 242 240 237 230 229 233 226 227 227 222 223 229 229 226 234 231 237 238 241 249 253 251 254 260 262 265 266 266
268 270 270 271 273 274 273 274 271 271 261 257 255 248 243 235 235 234 234 235 228 225 229 232 228 231 227 224 224 229 230 231 228 233 236 240 249 253 251 255 256 261 266 265 263
265 265 267 271 269 273 273 276 276 270 262 254 246 245 246 232 228 231 231 232 229 225 225 229 230 229 229 226 223 227 230 235 233 236 239 239 240 255 257 260 258 260 263 266 267
265 262 263 264 268 269 270 272 274 273 272 263 255 247 246 237 226 226 230 230 228 226 224 226 230 231 228 226 226 224 229 232 234 237 235 239 242 246 256 255 254 260 264 266 269
266 265 265 265 263 265 265 268 267 271 269 270 262 253 249 247 227 226 229 229 228 227 225 224 228 230 231 224 227 231 229 231 234 239 226 233 242 238 249 251 255 263 267 267 268
270 268 267 267 266 264 264 262 263 262 265 265 264 259 250 248 238 226 226 228 228 227 226 223 224 229 231 231 231 230 234 233 232 232 233 235 240 242 246 251 255 260 266 270 273
274 273 269 268 268 266 264 264 262 260 257 257 261 259 255 246 242 232 225 228 227 228 226 226 223 225 228 233 234 232 236 236 235 234 232 237 242 245 248 247 253 260 265 270 273
273 274 274 273 271 268 266 265 264 262 256 253 252 256 254 252 244 236 229 227 228 228 226 227 226 226 227 228 235 237 238 239 236 235 240 242 242 247 244 247 254 260 262 270 271
274 274 274 274 273 271 270 267 266 267 260 254 250 246 251 249 247 239 232 228 228 229 228 227 227 228 230 229 228 232 237 241 242 241 241 240 244 245 246 253 256 258 265 269 272
278 275 274 274 272 270 269 267 266 264 264 259 252 248 245 249 247 244 237 230 229 229 229 229 226 226 230 231 233 234 233 238 244 246 243 242 245 244 248 254 258 260 263 268 273
285 280 277 273 272 272 269 267 266 264 263 262 256 250 247 243 247 244 241 236 231 231 229 230 228 227 228 231 234 235 237 238 239 241 243 245 244 245 247 254 259 261 262 269 273
290 285 280 277 274 271 269 267 266 264 261 259 259 256 248 244 244 243 241 238 234 231 231 230 229 229 228 230 232 235 237 239 241 241 242 245 244 244 248 251 253 258 262 268 270
293 289 286 280 277 272 268 265 263 262 261 260 258 257 255 246 241 242 241 241 239 235 232 231 230 230 230 230 231 232 234 237 240 241 243 240 241 244 246 249 251 255 259 265 269
293 290 287 285 278 272 269 264 262 259 258 259 259 257 257 254 245 240 242 242 238 236 232 231 231 231 231 231 232 233 234 235 239 240 242 241 243 246 246 247 250 254 259 262 267
293 291 288 284 278 273 268 266 263 262 261 259 257 255 256 255 249 241 243 243 239 234 233 231 231 230 230 233 233 233 235 236 237 240 241 242 242 246 249 250 253 256 260 264 265
Height
10587 10586 10584 10584 10583 10583 10584 10584 10586 10585 10585 10586 10587 10589 10591 10594 10597 10601 10608 10612 10616 10621 10624 10627 10632 10636 10641 10643 10647 10655 10656 10654 10658 10664 10668 10667 10669 10671 10674 10675 10677 10679 10680 10686 10687
10572 10571 10570 10570 10570 10571 10572 10573 10574 10576 10575 10576 10577 10578 10580 10582 10585 10590 10595 10599 10604 10609 10613 10617 10622 10626 10629 10633 10638 10645 10644 10643 10654 10654 10654 10658 10661 10664 10665 10667 10668 10671 10672 10676 10678
10557 10557 10556 10555 10557 10558 10559 10560 10561 10563 10565 10565 10566 10567 10569 10571 10573 10578 10582 10587 10592 10597 10601 10606 10611 10616 10619 10625 10626 10633 10630 10637 10645 10641 10645 10649 10651 10655 10657 10660 10659 10662 10663 10666 10668
10543 10542 10541 10541 10542 10544 10545 10546 10547 10549 10552 10554 10556 10557 10558 10559 10562 10565 10569 10575 10580 10585 10589 10594 10600 10604 10608 10613 10617 10624 10622 10630 10631 10633 10638 10639 10641 10645 10647 10650 10652 10652 10656 10656 10659
10528 10525 10525 10526 10526 10528 10530 10531 10532 10535 10539 10542 10544 10547 10547 10547 10550 10553 10557 10563 10569 10573 10578 10583 10588 10593 10598 10602 10609 10613 10613 10620 10621 10624 10627 10628 10632 10634 10637 10640 10643 10643 10647 10648 10649
10511 10509 10507 10509 10510 10513 10515 10516 10517 10521 10524 10529 10532 10534 10535 10537 10537 10542 10545 10550 10556 10562 10566 10571 10577 10583 10587 10592 10599 10600 10603 10608 10611 10615 10617 10619 10623 10622 10631 10630 10633 10636 10636 10639 10641
10495 10494 10492 10492 10494 10497 10500 10501 10502 10505 10509 10513 10518 10521 10523 10525 10527 10529 10533 10537 10543 10549 10554 10560 10567 10573 10576 10582 10588 10587 10595 10600 10601 10605 10608 10610 10614 10610 10623 10621 10622 10626 10629 10629 10632
10476 10476 10475 10475 10477 10481 10482 10484 10486 10489 10493 10498 10503 10507 10509 10512 10514 10517 10521 10525 10529 10536 10543 10549 10555 10560 10565 10571 10576 10579 10586 10588 10589 10596 10597 10604 10601 10604 10611 10613 10613 10615 10620 10622 10623
10456 10455 10455 10456 10458 10461 10462 10464 10468 10471 10475 10479 10487 10492 10495 10498 10502 10505 10507 10512 10517 10522 10529 10536 10542 10549 10554 10559 10563 10568 10572 10574 10581 10586 10589 10595 10591 10595 10602 10603 10605 10606 10609 10611 10613
10436 10436 10435 10438 10440 10440 10441 10443 10447 10452 10455 10460 10469 10474 10480 10483 10488 10492 10494 10499 10503 10509 10515 10522 10529 10535 10540 10545 10548 10553 10558 10563 10570 10575 10579 10585 10580 10588 10592 10594 10596 10597 10600 10602 10603
10418 10418 10420 10422 10422 10423 10424 10424 10427 10432 10435 10440 10448 10455 10462 10466 10472 10477 10481 10485 10490 10495 10501 10510 10519 10520 10522 10531 10539 10545 10550 10554 10559 10563 10568 10573 10573 10576 10582 10584 10584 10587 10590 10592 10593
10406 10408 10408 10409 10410 10411 10410 10412 10415 10419 10418 10420 10423 10433 10443 10444 10455 10460 10466 10471 10476 10480 10489 10497 10501 10502 10514 10520 10526 10533 10537 10542 10547 10549 10558 10563 10563 10567 10572 10572 10574 10576 10579 10582 10584
10397 10396 10397 10397 10397 10398 10401 10402 10405 10407 10409 10401 10407 10412 10416 10420 10433 10442 10447 10455 10461 10468 10474 10482 10486 10492 10499 10506 10514 10519 10524 10529 10534 10536 10546 10553 10555 10558 10561 10562 10561 10564 10568 10571 10573
10386 10385 10384 10387 10386 10386 10389 10391 10392 10394 10396 10386 10387 10392 10394 10402 10416 10417 10429 10438 10445 10451 10459 10469 10473 10478 10486 10492 10499 10507 10510 10513 10519 10525 10535 10541 10549 10547 10547 10552 10552 10553 10555 10560 10563
10374 10374 10374 10372 10375 10375 10377 10379 10379 10377 10378 10372 10368 10372 10378 10384 10394 10400 10411 10420 10428 10436 10447 10453 10456 10464 10472 10477 10484 10491 10495 10501 10506 10514 10523 10531 10537 10534 10536 10539 10540 10545 10547 10546 10551
10361 10361 10360 10362 10360 10362 10364 10366 10365 10362 10362 10366 10361 10359 10364 10370 10376 10383 10392 10403 10411 10419 10431 10439 10443 10451 10457 10462 10470 10474 10481 10487 10493 10502 10516 10515 10523 10532 10521 10523 10528 10534 10539 10539 10539
10348 10348 10347 10346 10348 10348 10351 10353 10352 10346 10350 10353 10353 10351 10352 10357 10363 10369 10378 10389 10396 10404 10415 10421 10429 10435 10441 10448 10456 10462 10465 10472 10482 10491 10502 10499 10506 10521 10510 10513 10515 10522 10523 10526 10528
10330 10332 10332 10330 10332 10332 10334 10338 10335 10335 10337 10339 10338 10339 10340 10343 10348 10354 10363 10372 10381 10387 10397 10404 10413 10419 10426 10434 10440 10444 10451 10461 10468 10477 10485 10488 10500 10503 10503 10505 10504 10509 10510 10512 10514
10310 10312 10313 10313 10312 10313 10316 10319 10315 10314 10322 10325 10325 10326 10325 10326 10329 10337 10347 10355 10362 10370 10380 10384 10397 10402 10409 10415 10421 10431 10438 10442 10452 10460 10470 10479 10487 10489 10491 10492 10492 10496 10499 10502 10503
10300 10292 10293 10292 10291 10291 10295 10298 10294 10294 10302 10307 10310 10310 10311 10310 10313 10318 10327 10338 10345 10351 10359 10369 10377 10385 10391 10399 10407 10415 10421 10425 10435 10446 10456 10466 10472 10478 10476 10475 10481 10485 10490 10491 10491
10281 10274 10274 10272 10266 10268 10270 10273 10275 10271 10277 10285 10290 10293 10292 10292 10294 10299 10311 10319 10325 10331 10337 10347 10358 10368 10375 10388 10390 10397 10405 10410 10419 10431 10443 10452 10461 10462 10464 10463 10469 10473 10477 10479 10479
10257 10256 10251 10251 10242 10245 10245 10246 10249 10252 10248 10257 10266 10269 10270 10272 10275 10282 10290 10294 10303 10308 10318 10323 10338 10351 10356 10365 10373 10382 10392 10396 10403 10419 10426 10435 10449 10450 10450 10450 10452 10460 10465 10467 10467
10233 10231 10227 10224 10217 10216 10217 10219 10218 10223 10226 10227 10235 10241 10242 10249 10252 10260 10266 10273 10281 10287 10295 10305 10319 10327 10338 10347 10357 10367 10373 10378 10386 10397 10414 10421 10441 10433 10438 10437 10437 10444 10451 10454 10456
10205 10204 10202 10196 10192 10189 10188 10191 10190 10190 10196 10199 10204 10206 10215 10224 10226 10238 10242 10246 10253 10262 10271 10279 10297 10312 10324 10331 10339 10349 10355 10363 10371 10389 10399 10412 10417 10420 10421 10424 10425 10429 10437 10441 10442
10175 10172 10170 10169 10165 10160 10158 10164 10163 10160 10161 10167 10175 10176 10178 10194 10203 10206 10214 10225 10233 10240 10247 10258 10276 10288 10299 10310 10320 10329 10337 10346 10362 10372 10382 10392 10400 10403 10405 10407 10412 10418 10423 10429 10431
10143 10137 10139 10142 10135 10132 10128 10134 10133 10131 10137 10140 10141 10144 10146 10158 10173 10179 10189 10198 10208 10214 10221 10237 10252 10264 10278 10289 10299 10309 10321 10337 10350 10358 10369 10379 10386 10386 10387 10393 10400 10403 10411 10418 10417
10112 10107 10100 10114 10109 10107 10103 10102 10105 10098 10110 10112 10108 10117 10113 10122 10137 10155 10161 10169 10184 10188 10198 10210 10226 10241 10259 10264 10276 10292 10315 10323 10330 10343 10349 10367 10369 10361 10372 10382 10384 10390 10401 10404 10398